CW6677 Weather Reports


time (UTC)temp
F
wind
direction
speed
knots
gust
knots
rain 1hr
in
rain 24hr
in
rain mn
in
humidity
%
barometer
mb
20260503223507 76 52 4.3 9.6 0.00 0.02 0.02 40 1011.0
20260503223018 76 5 3.5 9.6 0.00 0.02 0.02 39 1011.1
20260503222506 76 28 3.5 9.6 0.00 0.02 0.02 39 1011.1
20260503222008 77 36 4.3 8.7 0.00 0.02 0.02 38 1011.1
20260503221518 77 11 4.3 10.4 0.00 0.02 0.02 38 1011.2
20260503221009 77 9 3.5 10.4 0.00 0.02 0.02 38 1011.2
20260503220508 76 32 1.7 7.8 0.00 0.02 0.02 40 1011.4
20260503220016 76 9 3.5 8.7 0.00 0.02 0.02 40 1011.4
20260503215508 76 35 3.5 8.7 0.00 0.02 0.02 39 1011.5
20260503215008 76 86 3.5 7.8 0.00 0.02 0.02 40 1011.6
20260503214516 76 61 2.6 7.8 0.00 0.02 0.02 41 1011.6
20260503214011 76 9 3.5 7.8 0.00 0.02 0.02 42 1011.7
20260503213511 75 24 3.5 9.6 0.00 0.02 0.02 42 1011.7
20260503213023 76 69 2.6 9.6 0.00 0.02 0.02 42 1011.8
20260503212507 76 20 3.5 7.0 0.00 0.02 0.02 42 1011.9
20260503212010 76 19 2.6 7.0 0.00 0.02 0.02 43 1011.9
20260503211529 76 46 2.6 7.0 0.00 0.02 0.02 42 1011.9
20260503211007 75 38 2.6 7.8 0.00 0.02 0.02 43 1012.0
20260503210508 75 131 2.6 7.8 0.00 0.02 0.02 43 1012.0
20260503210020 75 5 5.2 7.0 0.00 0.02 0.02 42 1012.0
20260503205513 75 34 2.6 7.8 0.00 0.02 0.02 43 1012.1
20260503205007 75 22 3.5 7.8 0.00 0.02 0.02 44 1012.1
20260503204516 75 360 2.6 7.8 0.00 0.02 0.02 44 1012.1
20260503204009 75 348 5.2 7.8 0.00 0.02 0.02 43 1012.2
20260503203507 75 36 4.3 7.8 0.00 0.02 0.02 41 1012.2
20260503203022 75 15 2.6 7.0 0.00 0.02 0.02 43 1012.3
20260503202511 75 32 3.5 7.0 0.00 0.02 0.02 44 1012.3
20260503202012 74 351 2.6 7.8 0.00 0.02 0.02 46 1012.4
20260503201518 73 35 2.6 7.8 0.00 0.02 0.02 47 1012.4
20260503201006 73 46 2.6 7.8 0.00 0.02 0.02 48 1012.5
20260503200508 72 43 2.6 8.7 0.00 0.02 0.02 48 1012.7
20260503200020 72 352 4.3 8.7 0.00 0.02 0.02 48 1012.6
20260503195512 73 14 3.5 7.8 0.00 0.02 0.02 48 1012.7
20260503195009 73 58 3.5 7.8 0.00 0.02 0.02 48 1012.7
20260503194515 72 28 2.6 7.0 0.00 0.02 0.02 48 1012.8
20260503194008 72 26 4.3 7.8 0.00 0.02 0.02 50 1012.9
20260503193510 71 59 2.6 7.8 0.00 0.02 0.02 49 1012.9
20260503193034 71 61 2.6 8.7 0.00 0.02 0.02 51 1012.9
20260503192502 71 18 3.5 8.7 0.00 0.02 0.02 51 1012.9
20260503192002 71 346 3.5 7.8 0.00 0.02 0.02 51 1013.1
20260503191506 71 41 4.3 7.0 0.00 0.02 0.02 53 1012.9
20260503191006 70 18 3.5 7.0 0.00 0.02 0.02 51 1013.2
20260503190503 70 346 2.6 9.6 0.00 0.02 0.02 52 1013.2
20260503190018 70 23 3.5 9.6 0.00 0.02 0.02 52 1013.2
20260503185507 69 21 1.7 7.8 0.00 0.02 0.02 55 1013.2
20260503185006 69 339 3.5 7.8 0.00 0.02 0.02 54 1013.2
20260503184517 70 63 4.3 7.0 0.00 0.02 0.02 54 1013.4
20260503184006 69 54 2.6 7.8 0.00 0.02 0.02 52 1013.5
20260503183507 69 50 3.5 7.8 0.00 0.02 0.02 54 1013.5
20260503183022 69 24 1.7 7.0 0.00 0.02 0.02 55 1013.6
20260503182509 69 33 1.7 7.0 0.00 0.02 0.02 55 1013.6
20260503182008 69 15 2.6 5.2 0.00 0.02 0.02 55 1013.6
20260503181505 68 86 1.7 7.0 0.00 0.02 0.02 56 1013.7
20260503181003 68 78 1.7 7.0 0.00 0.02 0.02 57 1013.8
20260503180506 68 90 3.5 7.0 0.00 0.02 0.02 58 1013.8
20260503180008 68 13 3.5 7.8 0.00 0.02 0.02 58 1013.8
20260503175506 67 64 3.5 7.8 0.00 0.02 0.02 57 1013.8
20260503175005 67 82 3.5 7.8 0.00 0.02 0.02 55 1013.9
20260503174511 67 36 1.7 7.8 0.00 0.02 0.02 57 1013.9
20260503174006 67 103 2.6 7.8 0.00 0.02 0.02 57 1013.9
20260503173507 67 21 2.6 7.0 0.00 0.02 0.02 57 1013.8
20260503173021 67 347 2.6 7.0 0.00 0.02 0.02 1013.9
20260503172506 67 36 3.5 7.0 0.00 0.02 0.02 57 1014.0
20260503172011 67 65 3.5 7.0 0.00 0.02 0.02 57 1014.0
20260503171522 67 84 3.5 7.0 0.00 0.02 0.02 57 1013.9
20260503171003 66 5 2.6 7.0 0.00 0.02 0.02 58 1014.0
20260503170504 66 23 2.6 7.8 0.00 0.02 0.02 60 1014.0
20260503151006 57 346 0.0 1.7 0.00 0.02 0.02 77 1014.2
20260503150507 57 263 0.0 1.7 0.00 0.02 0.02 76 1014.2
20260503131006 55 74 0.9 2.6 0.00 0.02 0.02 75 1013.7
20260503130507 55 91 0.0 1.7 0.00 0.02 0.02 75 1013.6
20260503110509 56 69 0.0 1.7 0.00 0.02 0.02 70 1013.9
20260503090506 61 352 0.0 2.6 0.00 0.02 0.02 59 1014.1
20260503081508 61 102 0.9 1.7 0.01 0.02 0.02 59 1014.3
20260503081006 62 84 0.0 2.6 0.02 0.02 0.02 57 1014.3
20260503080506 62 123 0.9 2.6 0.02 0.02 0.02 57 1014.3
20260503072509 59 63 0.0 1.7 0.01 0.01 0.01 66 1014.3
20260503072011 60 38 0.0 1.7 0.01 0.01 0.01 68 1014.3
20260503071535 60 60 0.0 1.7 0.01 0.01 0.01 65 1014.3
20260503071007 62 360 0.0 1.7 0.00 0.00 0.00 61 1014.2
20260503070503 63 35 0.9 1.7 0.00 0.00 0.00 58 1014.2
20260503055006 64 15 0.0 3.5 0.00 0.00 0.00 56 1014.1
20260503054526 64 9 0.0 1.7 0.00 0.00 0.00 56 1014.1
20260503054011 64 9 0.9 1.7 0.00 0.00 0.00 55 1014.1
20260503053506 64 40 0.0 1.7 0.00 0.00 0.00 56 1014.1
20260503053016 64 100 0.0 1.7 0.00 0.00 0.00 57 1014.1
20260503052508 65 84 0.9 2.6 0.00 0.00 0.00 56 1014.0
20260503052013 65 66 0.9 2.6 0.00 0.00 0.00 56 1013.9
20260503051524 65 107 0.9 2.6 0.00 0.00 0.00 56 1013.8
20260503051010 65 63 0.9 3.5 0.00 0.00 0.00 56 1013.9
20260503050507 65 13 0.9 4.3 0.00 0.00 0.00 56 1013.9
20260503050025 65 23 0.9 4.3 0.00 0.00 0.00 57 1013.7
20260503045514 64 49 0.9 1.7 0.00 0.00 0.00 58 1013.8
20260503045007 64 71 0.9 2.6 0.00 0.00 0.00 58 1013.8
20260503044513 64 43 0.9 2.6 0.00 0.00 0.00 59 1013.8
20260503044003 64 29 0.9 2.6 0.00 0.00 0.00 59 1013.7
20260503043507 64 93 0.9 2.6 0.00 0.00 0.00 59 1013.7
20260503043014 64 66 1.7 4.3 0.00 0.00 0.00 59 1013.7
20260503042508 64 107 1.7 4.3 0.00 0.00 0.00 59 1013.6
20260503042008 64 69 0.9 5.2 0.00 0.00 0.00 59 1013.6
20260503041518 64 88 2.6 5.2 0.00 0.00 0.00 59 1013.6
20260503041008 63 107 1.7 4.3 0.00 0.00 0.00 60 1013.6
20260503040516 63 21 1.7 7.8 0.00 0.00 0.00 60 1013.5
20260503040026 64 47 1.7 7.8 0.00 0.00 0.00 58 1013.5
20260503035511 64 50 2.6 7.0 0.00 0.00 0.00 58 1013.4
20260503035013 64 20 1.7 5.2 0.00 0.00 0.00 57 1013.4
20260503034526 64 65 2.6 5.2 0.00 0.00 0.00 58 1013.3
20260503034007 64 94 0.9 5.2 0.00 0.00 0.00 57 1013.2
20260503033504 64 28 1.7 6.1 0.00 0.00 0.00 57 1013.2
20260503033022 65 85 0.9 7.0 0.00 0.00 0.00 57 1013.1
20260503032509 65 54 3.5 7.0 0.00 0.00 0.00 56 1013.1
20260503032006 65 51 1.7 7.0 0.00 0.00 0.00 56 1013.1
20260503031520 65 89 2.6 7.0 0.00 0.00 0.00 56 1013.0
20260503031008 65 94 1.7 7.0 0.00 0.00 0.00 56 1013.0
20260503030510 66 54 1.7 6.1 0.00 0.00 0.00 56 1013.0
20260503030021 66 11 1.7 6.1 0.00 0.00 0.00 56 1012.9
20260503025510 66 75 2.6 7.8 0.00 0.00 0.00 55 1012.9
20260503025009 66 65 2.6 7.8 0.00 0.00 0.00 54 1012.9
20260503024523 67 40 1.7 5.2 0.00 0.00 0.00 54 1012.9
20260503024009 67 90 2.6 5.2 0.00 0.00 0.00 54 1012.9
20260503023510 67 27 2.6 7.0 0.00 0.00 0.00 54 1012.8
20260503023025 67 34 3.5 7.8 0.00 0.00 0.00 52 1012.8
20260503022507 68 26 3.5 7.8 0.00 0.00 0.00 52 1012.8
20260503022006 68 24 1.7 7.0 0.00 0.00 0.00 52 1012.7
20260503021516 68 99 1.7 7.0 0.00 0.00 0.00 52 1012.8
20260503021007 68 55 1.7 7.8 0.00 0.00 0.00 52 1012.8
20260503020507 69 57 3.5 9.6 0.00 0.00 0.00 50 1012.8
20260503020020 69 108 2.6 12.2 0.00 0.00 0.00 49 1012.9
20260503015508 69 48 7.0 12.2 0.00 0.00 0.00 47 1012.8
20260503015010 70 64 2.6 7.0 0.00 0.00 0.00 49 1012.8
20260503014525 70 352 0.9 7.0 0.00 0.00 0.00 49 1012.8
20260503014009 71 342 1.7 6.1 0.00 0.00 0.00 48 1012.8
20260503013511 71 299 2.6 7.0 0.00 0.00 0.00 49 1012.9
20260503013026 71 86 1.7 7.0 0.00 0.00 0.00 49 1012.8
20260503012506 72 51 3.5 7.0 0.00 0.00 0.00 47 1012.9
20260503012007 72 99 0.9 7.8 0.00 0.00 0.00 48 1012.9
20260503011514 72 360 1.7 7.8 0.00 0.00 0.00 47 1013.0
20260503011005 72 49 0.9 9.6 0.00 0.00 0.00 48 1012.9
20260503010505 72 53 0.9 9.6 0.00 0.00 0.00 1012.9
20260503010019 71 45 4.3 9.6 0.00 0.00 0.00 48 1013.1
20260503005508 71 36 4.3 7.8 0.00 0.00 0.00 48 1013.1
20260503005012 71 341 1.7 7.8 0.00 0.00 0.00 48 1013.1
20260503004528 71 5 3.5 8.7 0.00 0.00 0.00 47 1013.2
20260503004011 72 352 3.5 8.7 0.00 0.00 0.00 47 1013.2
20260503003504 72 17 2.6 7.0 0.00 0.00 0.00 47 1013.2
20260503003020 72 348 1.7 7.0 0.00 0.00 0.00 49 1013.1
20260503002505 72 329 1.7 4.3 0.00 0.00 0.00 50 1013.1
20260503002007 72 267 0.9 7.0 0.00 0.00 0.00 49 1013.1
20260503001520 71 107 0.9 8.7 0.00 0.00 0.00 49 1013.2
20260503001005 71 5 1.7 8.7 0.00 0.00 0.00 51 1013.2
20260503000506 71 360 3.5 9.6 0.00 0.00 0.00 49 1013.3
20260503000020 71 352 5.2 10.4 0.00 0.00 0.00 49 1013.2
20260502235507 71 306 3.5 10.4 0.00 0.00 0.00 49 1013.4
20260502235007 71 352 5.2 10.4 0.00 0.00 0.00 48 1013.3
20260502234527 71 20 3.5 10.4 0.00 0.00 0.00 49 1013.3
20260502234008 71 32 4.3 7.8 0.00 0.00 0.00 48 1013.4
20260502233510 71 16 3.5 7.8 0.00 0.00 0.00 47 1013.6
20260502233027 72 352 3.5 10.4 0.00 0.00 0.00 47 1013.6
20260502232504 72 9 6.1 10.4 0.00 0.00 0.00 46 1013.7
20260502232005 72 336 3.5 7.0 0.00 0.00 0.00 47 1013.7
20260502231512 72 360 3.5 8.7 0.00 0.00 0.00 46 1013.7
20260502231008 72 20 3.5 9.6 0.00 0.00 0.00 46 1013.8
20260502230506 71 360 3.5 10.4 0.00 0.00 0.00 49 1013.8
20260502230018 71 33 3.5 10.4 0.00 0.00 0.00 47 1013.9
20260502225505 71 339 4.3 11.3 0.00 0.00 0.00 48 1014.0
20260502225009 70 26 2.6 11.3 0.00 0.00 0.00 50 1014.1
20260502224523 70 17 4.3 11.3 0.00 0.00 0.00 50 1014.2
20260502224007 70 19 4.3 12.2 0.00 0.00 0.00 50 1014.2